Location: Academy at Carrie F Thomas
(32.8490°N, 97.2053°W)
Time: 21:27:10
(UTC+00:00)

Meteor 1-25 Rocket - Pass Details

Date: 03 July 2022
Orbit: 836 x 892 km, 81.2° (Epoch: 07 August)

Event Time Altitude Azimuth Distance (km) Brightness Sun altitude
Exits shadow 08:46:50 29° 142° (SE) 1,561 5.4 -25.7°
Maximum altitude 08:49:12 44° 92° (E) 1,222 5.2 -25.4°
Drops below altitude 10° 08:54:41 10° 23° (NNE) 2,562 7.7 -24.8°
Sets 08:57:14 0° 17° (NNE) 3,502 8.6 -24.5°
